Flag for Germany Weather past 2 weeks in Achern, Baden-Württemberg, Germany

Now
34 °F

Light rain. Mostly cloudy.


Feels Like: 23 °F
Forecast: 35 / 38 °F
Wind: 16 mph from Southwest

Location: Karlsruhe - Baden Wurttemberg

Current Time: Jan 26, 2015 at 7:34:45 PM

Latest Report: Jan 26, 2015 at 7:20 PM


Visibility: 4 mi

Pressure: 30.15 "Hg

Humidity: 93%

Dew point: 32 °F

Location of AchernLocation

Historic Weather in Achern — Graph

°F

Achern temperature yesterday

Maximum temperature yesterday: 37 °F (at 12:50 PM)
Minimum temperature yesterday: 30 °F (at 5:20 AM)
Average temperature yesterday: 34 °F

Past Weeks' High & Low Weather Summary

 TemperatureHumidityPressure
High59 °F (Jan 13, 1:20 PM)100% (Jan 16, 4:50 PM)30.45 "Hg (Jan 16, 4:50 PM)
Low27 °F (Jan 18, 5:20 AM)25% (Jan 13, 12:20 PM)29.68 "Hg (Jan 15, 4:20 PM)
Average38 °F82%30.02 "Hg
* Reported Jan 11 6:20 PM — Jan 26 6:20 PM, Achern, Weather by CustomWeather, © 2014

Note: Actual official high and low records may vary slightly from our data, if they occured in-between our weather recording intervals... More about our weather records

Advertising

Achern weather history for previous 24 hours

 ConditionsComfort  
Time TempWeatherWind HumidityBarometerVisibility
6:20 PM
Jan 26
34 °FLight rain. Mostly cloudy.17 mph93%30.15 "Hg4 mi
5:50 PM34 °FRain. Fog.17 mph93%30.15 "Hg2 mi
5:20 PM34 °FRain. Fog.18 mph93%30.15 "Hg3 mi
4:50 PM34 °FLight rain. Mostly cloudy.17 mph93%30.15 "Hg4 mi
4:20 PM34 °FSnow. Fog.16 mph93%30.18 "Hg3 mi
3:50 PM34 °FSnow. Fog.16 mph93%30.18 "Hg2 mi
3:20 PM36 °FRain. Fog.16 mph93%30.18 "Hg2 mi
2:50 PM36 °FLight rain. Partly sunny.16 mph87%30.21 "Hg4 mi
2:20 PM36 °FLight rain. Fog.15 mph93%30.21 "Hg3 mi
1:50 PM36 °FLight rain. Broken clouds.17 mph87%30.21 "Hg4 mi
1:20 PM36 °FLight rain. Broken clouds.17 mph87%30.24 "Hg4 mi
12:50 PM36 °FLight rain. Broken clouds.18 mph87%30.24 "Hg5 mi
12:20 PM36 °FLight rain. Broken clouds.18 mph87%30.27 "Hg5 mi
11:50 AM36 °FLight rain. Partly sunny.15 mph87%30.27 "Hg4 mi
11:20 AM36 °FLight rain. Partly sunny.15 mph87%30.30 "Hg5 mi
10:50 AM34 °FLight rain. Broken clouds.15 mph93%30.30 "Hg4 mi
10:20 AM34 °FMore clouds than sun.13 mph93%30.30 "HgN/A
9:50 AM34 °FLight rain. Broken clouds.14 mph93%30.30 "Hg5 mi
9:20 AM34 °FLight rain. Broken clouds.14 mph93%30.33 "Hg4 mi
8:50 AM34 °FLight rain. Fog.13 mph93%30.33 "Hg3 mi
8:20 AM34 °FLight rain. Fog.12 mph93%30.33 "Hg3 mi
7:50 AM34 °FLight rain. Fog.10 mph93%30.33 "Hg3 mi
7:20 AM34 °FRain. Fog.10 mph93%30.33 "Hg2 mi
6:50 AM34 °FRain. Fog.10 mph93%30.33 "Hg2 mi
6:20 AM34 °FRain. Fog.8 mph93%30.36 "Hg3 mi
5:50 AM34 °FRain. Passing clouds.7 mph93%30.36 "Hg4 mi
5:20 AM34 °FRain. Fog.6 mph93%30.36 "Hg3 mi
4:50 AM34 °FRain. Passing clouds.6 mph93%30.36 "Hg2 mi
10:50 PM
Jan 25
36 °FPassing clouds.3 mph87%30.42 "HgN/A
10:20 PM36 °FPassing clouds.3 mph87%30.42 "HgN/A
9:50 PM36 °FPassing clouds.5 mph87%30.42 "HgN/A
9:20 PM34 °FPassing clouds.3 mph93%30.42 "HgN/A
8:50 PM34 °FPassing clouds.2 mph93%30.42 "HgN/A
8:20 PM34 °FPassing clouds.5 mph93%30.45 "HgN/A
7:50 PM34 °FPassing clouds.5 mph93%30.45 "HgN/A
7:20 PM34 °FPassing clouds.6 mph93%30.45 "HgN/A
Weather by CustomWeather, © 2014

See weather overviewHow to use our weather pages